Location: Newark
(45.8667°N, 9.7333°E)
Time: 14:59:55
(UTC+00:00)

Transit 4A - Pass Details

Date: 30 January 2020
Orbit: 872 x 973 km, 66.8° (Epoch: 23 February)

Event Time Altitude Azimuth Distance (km) Brightness Sun altitude
Rises 05:03:27 0° 214° (SW) 3,541 10.7 -18.0°
Reaches altitude 10° 05:05:59 10° 216° (SW) 2,588 10.0 -17.5°
Maximum altitude 05:11:59 81° 303° (WNW) 910 7.7 -16.5°
Drops below altitude 10° 05:17:53 10° 31° (NNE) 2,546 10.5 -15.5°
Sets 05:20:22 0° 33° (NNE) 3,480 11.2 -15.0°
